EN

Hourly Weather Pamplona

Today, 25 February, Thursday

Time Temperature Precipitation Wind Pressure Humidity
00:00 +8°C° 0 mm 3 mps 726 mmHg 89%
01:00 +8°C° 0 mm 3 mps 726 mmHg 88%
02:00 +7°C° 0 mm 3 mps 726 mmHg 88%
03:00 +7°C° 0 mm 2 mps 726 mmHg 87%
04:00 +6°C° 0 mm 2 mps 726 mmHg 88%
05:00 +6°C° 0 mm 2 mps 726 mmHg 88%
06:00 +6°C° 0 mm 2 mps 726 mmHg 88%
07:00 +7°C° 0 mm 2 mps 726 mmHg 84%
08:00 +8°C° 0 mm 2 mps 726 mmHg 81%
09:00 +9°C° 0 mm 3 mps 726 mmHg 77%
10:00 +10°C° 0 mm 3 mps 726 mmHg 71%
11:00 +12°C° 0 mm 3 mps 727 mmHg 66%
12:00 +13°C° 0 mm 3 mps 727 mmHg 60%
13:00 +13°C° 0 mm 3 mps 727 mmHg 58%
14:00 +15°C° 0 mm 2 mps 727 mmHg 57%
15:00 +15°C° 0 mm 2 mps 727 mmHg 55%
16:00 +14°C° 0 mm 1 mps 727 mmHg 62%
17:00 +12°C° 0 mm 1 mps 727 mmHg 69%
18:00 +10°C° 0 mm 0 mps 726 mmHg 76%
19:00 +10°C° 0 mm 1 mps 727 mmHg 79%
20:00 +10°C° 0 mm 1 mps 727 mmHg 82%
21:00 +9°C° 0 mm 1 mps 728 mmHg 85%
22:00 +9°C° 0 mm 1 mps 728 mmHg 87%
23:00 +9°C° 0 mm 1 mps 728 mmHg 90%

Tomorrow, 26 February, Friday

Time Temperature Precipitation Wind Pressure Humidity
00:00 +8°C° 0 mm 1 mps 728 mmHg 92%
01:00 +8°C° 0 mm 1 mps 728 mmHg 93%
02:00 +8°C° 0 mm 1 mps 728 mmHg 93%
03:00 +8°C° 0 mm 1 mps 728 mmHg 94%
04:00 +7°C° 0 mm 1 mps 728 mmHg 94%
05:00 +7°C° 0 mm 1 mps 728 mmHg 94%
06:00 +7°C° 0 mm 1 mps 728 mmHg 94%
07:00 +8°C° 0 mm 1 mps 728 mmHg 91%
08:00 +9°C° 0 mm 1 mps 728 mmHg 87%
09:00 +10°C° 0 mm 1 mps 729 mmHg 84%
10:00 +11°C° 0 mm 1 mps 729 mmHg 80%
11:00 +13°C° 0 mm 2 mps 729 mmHg 75%
12:00 +14°C° 0 mm 2 mps 729 mmHg 71%
13:00 +14°C° 0 mm 2 mps 729 mmHg 72%
14:00 +14°C° 0 mm 2 mps 728 mmHg 72%
15:00 +14°C° 0 mm 2 mps 728 mmHg 72%
16:00 +13°C° 0 mm 2 mps 728 mmHg 78%
17:00 +10°C° 0 mm 2 mps 728 mmHg 83%
18:00 +9°C° 0 mm 3 mps 727 mmHg 89%
19:00 +9°C° 0 mm 2 mps 728 mmHg 91%
20:00 +8°C° 0 mm 2 mps 728 mmHg 92%
21:00 +8°C° 0 mm 2 mps 728 mmHg 94%
22:00 +8°C° 0 mm 2 mps 728 mmHg 94%
23:00 +7°C° 0 mm 2 mps 728 mmHg 94%

Day after tomorrow, 27 February, Saturday

Time Temperature Precipitation Wind Pressure Humidity
00:00 +7°C° 0 mm 2 mps 728 mmHg 94%
01:00 +7°C° 0 mm 2 mps 728 mmHg 94%
02:00 +7°C° 0 mm 2 mps 728 mmHg 94%
03:00 +7°C° 0 mm 2 mps 728 mmHg 94%
04:00 +7°C° 0 mm 3 mps 728 mmHg 93%
05:00 +7°C° 0 mm 3 mps 728 mmHg 92%
06:00 +7°C° 0 mm 3 mps 728 mmHg 91%
07:00 +8°C° 0 mm 3 mps 728 mmHg 88%
08:00 +8°C° 0 mm 3 mps 728 mmHg 85%
09:00 +8°C° 0 mm 3 mps 729 mmHg 82%
10:00 +8°C° 0 mm 4 mps 728 mmHg 77%
11:00 +8°C° 0 mm 4 mps 728 mmHg 71%
12:00 +10°C° 0 mm 4 mps 728 mmHg 66%
13:00 +10°C° 0 mm 4 mps 728 mmHg 64%
14:00 +10°C° 0 mm 4 mps 727 mmHg 62%
15:00 +10°C° 0 mm 4 mps 727 mmHg 61%
16:00 +8°C° 0 mm 4 mps 727 mmHg 69%
17:00 +8°C° 0 mm 3 mps 726 mmHg 77%
18:00 +5°C° 0 mm 3 mps 726 mmHg 85%
19:00 +5°C° 0 mm 3 mps 726 mmHg 88%
20:00 +5°C° 0 mm 2 mps 727 mmHg 91%
21:00 +5°C° 0 mm 2 mps 727 mmHg 94%
22:00 +5°C° 0 mm 2 mps 727 mmHg 94%
23:00 +5°C° 0 mm 2 mps 726 mmHg 94%

28 February, Sunday

Time Temperature Precipitation Wind Pressure Humidity
00:00 +5°C° 0 mm 2 mps 726 mmHg 95%
01:00 +5°C° 0 mm 2 mps 726 mmHg 94%
02:00 +5°C° 0 mm 2 mps 726 mmHg 94%
03:00 +5°C° 0 mm 1 mps 726 mmHg 94%
04:00 +5°C° 0 mm 1 mps 725 mmHg 94%
05:00 +5°C° 0 mm 1 mps 725 mmHg 94%
06:00 +5°C° 0 mm 1 mps 725 mmHg 94%
07:00 +6°C° 0 mm 1 mps 725 mmHg 89%
08:00 +7°C° 0 mm 1 mps 725 mmHg 83%
09:00 +8°C° 0 mm 0 mps 725 mmHg 78%
10:00 +10°C° 0 mm 1 mps 725 mmHg 74%
11:00 +12°C° 0 mm 1 mps 725 mmHg 69%
12:00 +13°C° 0 mm 2 mps 725 mmHg 64%
13:00 +14°C° 0 mm 2 mps 724 mmHg 62%
14:00 +14°C° 0 mm 2 mps 724 mmHg 60%
15:00 +15°C° 0 mm 2 mps 723 mmHg 59%
16:00 +13°C° 0 mm 2 mps 723 mmHg 65%
17:00 +10°C° 0 mm 2 mps 722 mmHg 72%
18:00 +10°C° 0 mm 1 mps 722 mmHg 79%
19:00 +9°C° 0 mm 1 mps 722 mmHg 80%
20:00 +8°C° 0 mm 1 mps 722 mmHg 82%
21:00 +7°C° 0 mm 2 mps 723 mmHg 83%
22:00 +7°C° 0 mm 2 mps 723 mmHg 83%
23:00 +6°C° 0 mm 2 mps 723 mmHg 84%

1 March, Monday

Time Temperature Precipitation Wind Pressure Humidity
00:00 +6°C° 0 mm 2 mps 723 mmHg 85%
01:00 +6°C° 0 mm 2 mps 722 mmHg 85%
02:00 +5°C° 0 mm 2 mps 722 mmHg 86%
03:00 +5°C° 0 mm 2 mps 722 mmHg 87%
04:00 +5°C° 0 mm 2 mps 722 mmHg 87%
05:00 +5°C° 0 mm 2 mps 722 mmHg 87%
06:00 +5°C° 0 mm 2 mps 722 mmHg 87%
07:00 +6°C° 0 mm 2 mps 722 mmHg 81%
08:00 +8°C° 0 mm 3 mps 722 mmHg 76%
09:00 +9°C° 0 mm 3 mps 723 mmHg 71%
10:00 +10°C° 0 mm 4 mps 722 mmHg 66%
11:00 +12°C° 0 mm 4 mps 722 mmHg 61%
12:00 +13°C° 0 mm 5 mps 722 mmHg 55%
13:00 +13°C° 0 mm 5 mps 722 mmHg 54%
14:00 +14°C° 0 mm 5 mps 722 mmHg 53%
15:00 +14°C° 0 mm 5 mps 722 mmHg 52%
16:00 +13°C° 0 mm 4 mps 722 mmHg 57%
17:00 +11°C° 0 mm 4 mps 722 mmHg 62%
18:00 +10°C° 0 mm 3 mps 722 mmHg 67%
19:00 +9°C° 0 mm 2 mps 722 mmHg 69%
20:00 +9°C° 0 mm 2 mps 723 mmHg 70%
21:00 +8°C° 0 mm 2 mps 723 mmHg 72%
22:00 +8°C° 0 mm 2 mps 723 mmHg 73%
23:00 +8°C° 0 mm 2 mps 723 mmHg 74%

2 March, Tuesday

Time Temperature Precipitation Wind Pressure Humidity
00:00 +7°C° 0 mm 2 mps 723 mmHg 76%
01:00 +7°C° 0 mm 2 mps 723 mmHg 77%
02:00 +7°C° 0 mm 2 mps 723 mmHg 79%
03:00 +6°C° 0 mm 2 mps 723 mmHg 81%
04:00 +6°C° 0 mm 2 mps 724 mmHg 80%
05:00 +6°C° 0 mm 2 mps 724 mmHg 80%
06:00 +5°C° 0 mm 2 mps 724 mmHg 79%
07:00 +7°C° 0 mm 2 mps 724 mmHg 73%
08:00 +8°C° 0 mm 2 mps 725 mmHg 67%
09:00 +10°C° 0 mm 2 mps 725 mmHg 61%
10:00 +11°C° 0 mm 3 mps 725 mmHg 57%
11:00 +13°C° 0 mm 3 mps 726 mmHg 53%
12:00 +16°C° 0 mm 3 mps 726 mmHg 49%
13:00 +15°C° 0 mm 4 mps 726 mmHg 47%
14:00 +17°C° 0 mm 4 mps 726 mmHg 45%
15:00 +17°C° 0 mm 4 mps 726 mmHg 43%
16:00 +14°C° 0 mm 3 mps 725 mmHg 49%
17:00 +13°C° 0 mm 2 mps 725 mmHg 56%
18:00 +10°C° 0 mm 2 mps 725 mmHg 62%
19:00 +10°C° 0 mm 2 mps 726 mmHg 64%
20:00 +10°C° 0 mm 1 mps 726 mmHg 67%
21:00 +9°C° 0 mm 1 mps 727 mmHg 69%
22:00 +9°C° 0 mm 1 mps 727 mmHg 72%
23:00 +9°C° 0 mm 1 mps 727 mmHg 76%
Show more

We Need Your Consent

Meteoprog and our Service Providers may store and access personal data such as cookies, device identifiers or other similar technologies on your device and process such data to personalise content and ads, as well as provide social media features and to analyse the traffic.

  • Store and/or access information on your device

    Cookies, device identifiers or other information can be stored or accessed on your device for the purposes indicated above.

  • Personalised ads and content, ad and content measurement, audience insights, and products development

    Ads and content can be personalised based on a profile. More data can be added to better personalise ads and content. Ad and content performance can be measured. Insights about the audience who saw the ads and content can be derived. Such data can be used to develop or improve user’s experience, systems and software.

By clicking ‘I Agree’ you will allow the use of indicated cookies, device identifiers, web beacons or other similar technologies. Your settings can be changed in the browser on your device.

For certain purposes, legitimate interests may be relied on, rather than consent. You can read more about this in our Privacy and Cookie Policy.